User: anonymous   Login
Location: Unspecified
(0.0000°N, 0.0000°E)
Time: 21:46:09
(UTC+00:00)
Language:

Gonets-D1 - Orbit

View from above orbital plane
View from above orbital plane
View from above satellite
View from above satellite

Ground track
Ground track

The orbit data is extracted from the following two-line orbital elements,

1 24725U 97006A   17117.72756341 +.00000022 +00000-0 +66346-4 0  9997
2 24725 082.6104 234.6224 0010457 111.3227 248.8980 12.60666142929306
Epoch (UTC): 27 April 2017 17:27:41
Eccentricity: 0.0010457
inclination: 82.6104°
perigee height: 1412 km
apogee height: 1428 km
right ascension of ascending node: 234.6224°
argument of perigee: 111.3227°
revolutions per day: 12.60666142
mean anomaly at epoch: 248.8980°
orbit number at epoch: 92930

The dashed part of the orbit path shows where the satellite is in the earth's shadow,  

DLR